Location: *
(34.8620°S, 39.3380°E)
Time: 02:27:41
(UTC+00:00)

Cosmos 1300 - Pass Details

Date: 06 December 2021
Orbit: 509 x 511 km, 82.5° (Epoch: 22 January)

Event Time Altitude Azimuth Distance (km) Brightness Sun altitude
Exits shadow 21:09:15 13° 142° (SE) 1,589 5.7 -32.5°
Drops below altitude 10° 21:09:45 10° 147° (SSE) 1,758 6.0 -32.5°
Sets 21:12:08 0° 159° (SSE) 2,654 7.2 -32.5°
